Location: White Sands National Monument
(32.8140°N, 106.2665°W)
Time: 23:00:58
(UTC-06:00)

Daily predictions for brighter satellites

Satellite Brightness Start Highest point End
(mag) Time Altitude Azimuth Time Altitude Azimuth Time Altitude Azimuth
Blok-ML 4.4 19:06:29 10° NNW 19:12:47 88° ENE 19:18:43 10° SSE
Okean 3 Rocket 3.7 19:11:18 10° N 19:15:48 61° E 19:20:17 10° SSE
Resurs 01 Rocket 3.0 19:15:13 10° ESE 19:18:24 20° ENE 19:21:36 10° NNE
Cosmos 1758 4.1 19:20:04 10° SSE 19:23:40 31° E 19:27:19 10° NNE
ASTRO E2 2.8 19:19:45 10° W 19:23:48 73° S 19:27:45 10° E
Abrixas 2.4 19:22:51 10° SW 19:25:50 89° SSW 19:28:51 10° NE
Cosmos 1484 Rocket 2.7 19:22:03 10° SSE 19:25:51 89° ENE 19:29:44 10° N
SEDSat Delta rocket 4.1 19:23:04 10° W 19:29:36 81° S 19:35:59 12° E
NOSS 3-2 (A) 4.2 19:25:24 10° SW 19:31:14 55° NW 19:37:34 10° NNE
Cosmos 1437 3.3 19:28:05 10° NNW 19:31:20 63° W 19:34:33 10° S
Cosmos 1452 Rocket 4.1 19:28:22 10° N 19:33:11 35° ENE 19:37:57 10° SE
ATLAS 5 CENTAUR R/B 2.2 19:30:20 10° SW 19:34:59 67° WNW 19:40:00 10° NNE
Myojo/LAPS 4.2 19:37:12 10° WSW 19:39:14 24° S 19:41:32 11° SE
Timation 1 Rocket 4.3 19:34:39 10° NNW 19:40:35 64° ENE 19:46:29 10° SSE
COSMO-SKYMED 1 4.2 19:37:53 10° N 19:41:53 38° WNW 19:45:53 10° SW
Cosmos 468 4.5 19:40:51 10° S 19:46:02 65° ESE 19:51:14 10° NNE
Cosmos 1766 4.4 19:42:34 10° SSW 19:46:23 48° W 19:50:15 10° N
Cosmos 1544 3.4 19:48:02 10° SSE 19:51:35 44° E 19:55:10 10° NNE
Meteor 1-21 Rocket 4.5 19:47:01 10° N 19:52:18 44° ENE 19:57:33 10° SSE
ASTEX 1 4.1 19:49:16 10° NNE 19:53:31 29° E 19:57:44 10° SSE
SL-16 R/B 4.0 19:51:15 10° SW 19:56:19 33° WNW 20:01:26 10° N
Atlas Centaur 2 3.7 19:48:27 10° W 19:56:36 49° SSW 20:03:25 14° SE
Helios 1B rocket 2.3 19:52:32 10° NNE 19:56:39 72° ESE 20:00:44 10° S
METEOR-M 4.1 19:54:29 10° SSE 19:59:47 71° ENE 20:05:08 10° N
Cosmos 1766 Rocket 3.4 19:56:46 10° N 20:01:09 82° E 20:05:28 10° S
CENTAUR R/B 2.6 19:56:50 10° S 20:02:25 48° ESE 20:08:36 10° NE
Spot 1 4.2 19:58:43 10° SSE 20:03:30 79° ENE 20:08:03 10° N
OAO 3 Rocket 3.3 20:00:42 10° W 20:05:27 68° N 20:07:53 28° E
Spot 2 Rocket 3.4 20:00:46 10° SSE 20:05:46 71° ENE 20:10:48 10° N
Cosmos 1076 Rocket 3.9 20:02:07 10° NNW 20:06:25 68° W 20:10:43 10° S
Cosmos 1048 Rocket 3.9 20:03:31 10° S 20:08:47 69° ESE 20:14:01 10° NNE
NOSS 3-3 (A) 4.5 20:01:13 10° NNW 20:08:52 86° ENE 20:16:54 10° SSE
NOSS 3-3 (C) 4.5 20:01:19 10° NNW 20:08:58 86° ENE 20:17:00 10° SSE
Elektron 1 3.6 20:05:49 10° SSW 20:08:59 88° SE 20:10:32 25° NE
Cosmos-2242 3.2 20:04:55 10° S 20:09:14 76° W 20:13:38 10° N
Cosmos 1269 Rocket 3.9 20:04:13 10° SSW 20:09:29 83° ESE 20:14:47 10° NNE
H-2A R/B 3.9 20:14:25 27° NE 20:14:25 27° NE 20:16:55 10° NNE
FENGYUN 3A 3.9 20:10:21 20° SE 20:13:42 45° ENE 20:18:49 10° N
Cosmos 1805 4.2 20:11:14 10° SSW 20:15:03 50° W 20:18:53 10° N
ISS -2.4 20:12:07 10° WSW 20:15:15 47° NW 20:16:49 25° NNE
ATLAS CENTAUR R/B 4.1 20:14:08 10° WNW 20:16:29 15° WSW 20:18:45 10° SW
Cosmos 1953 3.3 20:12:58 10° SSW 20:16:49 47° W 20:20:40 10° N
Cosmos 2034 Rocket 4.5 20:13:28 10° SSW 20:19:39 63° W 20:25:55 10° N
HJ-1C 3.8 20:16:29 10° S 20:19:48 63° W 20:23:09 10° NNW
Cosmos 1174 4.1 20:17:25 10° SSW 20:22:37 65° ESE 20:24:32 32° NE
Gbstr 26 Del rocket 3.1 20:18:21 10° SW 20:22:37 87° NW 20:25:35 25° NE
ALOS 2.3 20:20:49 32° SE 20:22:44 57° ENE 20:27:19 10° N
Cosmos 1842 Rocket 3.3 20:25:00 10° S 20:29:18 82° E 20:33:39 10° N
GPS 2-04 Rocket1 2.6 20:29:24 10° W 20:32:46 67° NNW 20:32:46 67° NNW
Cosmos 158 Rocket 3.7 20:28:40 10° S 20:33:31 68° ESE 20:38:22 10° NNE
Cosmos 1500 Rocket 3.5 20:29:52 10° N 20:34:12 63° ENE 20:34:12 63° ENE
Cosmos 1943 3.0 20:32:45 10° SSW 20:38:23 82° ESE 20:44:01 10° NNE
Cosmos 1470 2.8 20:34:42 10° S 20:38:35 74° W 20:42:27 10° N
Cosmos 1943 Rocket 4.2 20:38:20 10° NNE 20:39:39 13° NNE 20:39:39 13° NNE
Cosmos 2369 Rocket 2.8 20:36:59 10° N 20:41:35 38° NE 20:41:35 38° NE
USA 215 4.2 20:39:41 10° NNE 20:45:48 44° NW 20:51:54 10° WSW
Meteosat 1 Rocket2 3.9 20:41:03 10° WSW 20:47:17 46° S 20:47:21 46° S
Delta 168 4.4 20:43:20 10° WSW 20:48:04 41° S 20:48:42 40° SSE
OAO 1 Rocket 4.4 20:47:22 10° W 20:52:44 71° N 20:53:01 69° NNE
Resurs 01 Rocket 3.5 20:50:44 10° SSW 20:54:38 30° W 20:58:33 10° NW
SeaSat 1 2.3 20:55:12 87° S 20:55:12 87° S 21:00:03 10° SSW
BREEZE-M DEB (TANK) 4.1 20:40:13 10° NW 20:55:55 56° WSW 20:57:58 37° S
Cosmos 1674 3.9 20:53:41 10° NNW 20:56:23 39° NW 20:56:23 39° NW
ASTRO E2 4.4 21:00:25 10° W 21:02:43 29° WSW 21:02:43 29° WSW
SEDSat Delta rocket 4.1 21:09:38 10° W 21:16:07 66° SSW 21:16:07 66° SSW
CENTAUR R/B 4.3 21:48:18 10° WSW 21:53:19 26° NW 21:58:49 10° N
